Flag for U.S.A. Weather past 2 weeks in Ocala, Florida, U.S.A.

Now
50 °F

Clear.


Feels Like: 49 °F
Forecast: 37 / 64 °F
Wind: 3 mph from North

Location: Ocala Municipal

Current Time: Jan 30, 2015 at 8:56:21 PM

Latest Report: Jan 30, 2015 at 8:35 PM


Visibility: 10 mi

Pressure: 30.23 "Hg

Humidity: 58%

Dew point: 36 °F

Location of OcalaLocation

Historic Weather in Ocala — Graph

°F

Ocala temperature yesterday

Maximum temperature yesterday: 68 °F (at 3:50 PM)
Minimum temperature yesterday: 32 °F (at 3:35 AM)
Average temperature yesterday: 44 °F

Past Weeks' High & Low Weather Summary

 TemperatureHumidityPressure
High75 °F (Jan 21, 1:50 PM)100% (Jan 17, 3:55 AM)30.35 "Hg (Jan 17, 3:55 AM)
Low32 °F (Jan 29, 3:35 AM)23% (Jan 19, 3:50 PM)29.78 "Hg (Jan 24, 2:55 AM)
Average51 °F78%30.09 "Hg
* Reported Jan 15 7:55 PM — Jan 30 7:55 PM, Ocala, Weather by CustomWeather, © 2014

Note: Actual official high and low records may vary slightly from our data, if they occured in-between our weather recording intervals... More about our weather records

Advertising

Ocala weather history for previous 24 hours

 ConditionsComfort  
Time TempWeatherWind HumidityBarometerVisibility
7:55 PM
Jan 30
54 °FClear.3 mph54%30.22 "Hg10 mi
6:50 PM55 °FClear.No wind55%30.19 "Hg10 mi
5:50 PM63 °FSunny.6 mph42%30.18 "Hg10 mi
4:50 PM66 °FSunny.9 mph32%30.17 "Hg10 mi
3:50 PM68 °FSunny.8 mph35%30.15 "Hg10 mi
2:50 PM70 °FSunny.13 mph38%30.15 "Hg10 mi
1:50 PM72 °FPassing clouds.14 mph41%30.15 "Hg10 mi
12:50 PM68 °FScattered clouds.12 mph60%30.17 "Hg10 mi
11:50 AM64 °FScattered clouds.7 mph73%30.19 "Hg10 mi
10:50 AM61 °FOvercast.5 mph83%30.21 "Hg10 mi
9:50 AM57 °FPartly sunny.5 mph88%30.20 "Hg10 mi
8:50 AM48 °FFog.3 mph94%30.18 "Hg3 mi
7:50 AM45 °FFog.5 mph93%30.19 "Hg1 mi
6:50 AM43 °FFog.No wind93%30.19 "Hg0 mi
6:35 AM43 °FLow clouds.3 mph87%30.18 "Hg0 mi
6:15 AM41 °FLow clouds.5 mph87%30.17 "Hg0 mi
5:55 AM41 °FLow clouds.5 mph87%30.17 "Hg0 mi
5:35 AM39 °FLow clouds.No wind93%30.18 "Hg8 mi
5:15 AM39 °FPassing clouds.No wind93%30.18 "Hg9 mi
4:55 AM37 °FClear.3 mph93%30.18 "Hg10 mi
4:35 AM39 °FClear.No wind87%30.18 "Hg10 mi
4:15 AM39 °FClear.No wind87%30.18 "Hg9 mi
3:55 AM39 °FClear.No wind87%30.19 "Hg5 mi
3:35 AM39 °FClear.No wind93%30.19 "Hg8 mi
3:15 AM39 °FClear.No wind93%30.20 "Hg7 mi
2:55 AM41 °FClear.No wind87%30.20 "Hg10 mi
2:35 AM39 °FClear.3 mph87%30.19 "Hg10 mi
2:15 AM43 °FClear.No wind87%30.19 "Hg10 mi
1:55 AM39 °FClear.No wind93%30.20 "Hg10 mi
1:35 AM41 °FClear.3 mph87%30.19 "Hg10 mi
1:15 AM43 °FClear.3 mph87%30.20 "Hg10 mi
12:55 AM41 °FClear.No wind87%30.21 "Hg10 mi
12:35 AM43 °FClear.3 mph87%30.22 "Hg10 mi
12:15 AM45 °FClear.No wind81%30.23 "Hg10 mi
11:55 PM
Jan 29
43 °FClear.No wind87%30.23 "Hg10 mi
11:35 PM45 °FClear.No wind81%30.23 "Hg10 mi
11:15 PM45 °FClear.No wind81%30.23 "Hg10 mi
10:35 PM45 °FClear.No wind87%30.24 "Hg10 mi
10:15 PM45 °FClear.No wind81%30.24 "Hg10 mi
9:55 PM46 °FClear.No wind82%30.24 "Hg10 mi
9:35 PM46 °FClear.No wind87%30.25 "Hg10 mi
9:15 PM48 °FClear.No wind82%30.25 "Hg10 mi
8:55 PM48 °FClear.No wind76%30.25 "Hg10 mi
8:35 PM48 °FClear.No wind82%30.26 "Hg10 mi
8:15 PM52 °FClear.No wind72%30.26 "Hg10 mi
Weather by CustomWeather, © 2014

See weather overviewHow to use our weather pages